Temp
20 20 20 21 24 26 27 26 27 26 27 25 24 25 25 23 23 21 14 14 15 14 13 13 12 13 12 12 11 11 11 11 11 11 11 11 11 12 12 12 12 12 13 13 14 14 14 15 15
19 20 21 24 25 26 27 27 26 26 25 24 24 25 25 22 19 15 15 15 14 14 13 13 12 12 12 11 12 11 11 10 10 11 10 11 11 10 10 11 12 12 12 12 13 14 14 14 15
20 21 23 25 26 27 26 26 26 25 24 25 25 24 24 21 18 17 16 15 15 14 13 12 12 11 11 12 11 11 10 11 11 10 10 10 10 10 10 10 11 11 12 12 13 13 11 11 12
21 22 24 25 25 25 26 26 26 25 24 24 25 25 20 17 18 17 15 15 15 14 13 12 12 11 11 11 11 10 10 10 10 10 10 10 10 9 9 9 10 11 12 11 11 11 9 10 11
21 23 25 25 25 25 26 25 26 26 25 25 25 24 21 16 16 15 15 15 15 15 13 12 11 11 11 11 11 10 10 10 10 10 9 9 9 9 9 9 9 9 10 9 10 10 10 10 10
23 23 25 24 25 25 26 25 25 26 26 25 26 25 19 16 16 15 15 15 15 14 14 12 12 12 11 11 10 10 10 10 10 9 9 9 9 9 9 9 9 9 9 9 9 9 10 11 11
23 24 24 24 24 24 25 24 26 26 26 24 24 25 20 17 16 16 16 16 15 14 14 12 11 12 12 10 10 10 10 10 9 9 10 11 12 12 12 11 11 12 11 12 12 11 12 13 12
22 24 24 24 24 23 24 24 23 25 24 22 22 24 22 17 16 16 16 15 15 14 13 13 12 11 11 11 10 10 9 9 9 10 12 13 13 13 11 12 13 13 13 13 13 14 13 13 13
21 24 23 23 24 23 24 25 23 23 24 23 22 21 19 16 15 16 16 15 15 14 14 14 12 11 11 10 10 10 9 9 9 11 12 12 9 10 10 13 14 15 14 14 14 14 14 14 14
23 24 23 23 24 24 24 24 24 24 24 24 23 19 17 16 16 16 16 16 15 14 14 14 13 12 11 10 10 10 9 9 10 10 10 10 10 10 11 13 14 14 14 14 14 14 14 14 11
23 23 23 23 22 23 23 24 23 24 23 21 21 21 17 16 17 17 17 16 15 15 14 14 13 13 12 11 10 10 10 9 10 10 10 10 10 11 11 10 11 13 14 12 13 14 12 11 11
23 22 22 22 20 21 23 23 22 20 19 19 20 20 19 18 18 18 18 17 16 15 14 13 13 13 12 12 12 12 11 11 10 10 10 10 10 10 10 10 12 13 12 12 13 11 11 12 13
23 22 22 21 21 21 21 22 22 19 19 20 19 20 20 19 19 19 18 18 17 16 14 13 13 13 13 12 12 12 12 11 11 10 10 10 11 11 10 10 11 12 13 12 12 12 12 11 11
22 21 22 21 21 21 22 21 21 19 19 19 19 19 18 19 19 19 18 18 17 16 15 14 13 12 12 12 12 12 12 11 11 10 10 10 10 11 11 10 12 12 12 12 12 12 12 12 12
21 22 23 22 22 21 22 20 19 18 19 19 19 18 17 17 17 18 18 17 17 17 16 14 13 12 12 12 12 11 11 11 11 10 10 10 10 10 10 10 10 11 12 13 13 13 13 13 13
22 23 23 22 22 20 20 19 18 18 19 18 18 18 17 16 16 16 15 15 17 17 16 15 14 13 12 12 11 11 11 10 10 11 10 10 10 10 10 10 10 10 12 13 12 12 12 12 12
23 24 23 21 21 22 22 19 18 17 18 18 17 17 16 16 15 14 14 14 14 16 16 15 14 13 13 12 12 11 11 11 11 11 11 10 10 10 10 10 10 10 11 12 12 12 12 12 11
24 23 23 22 21 21 20 18 18 17 17 17 16 16 15 15 14 13 13 13 13 15 16 15 14 13 13 12 12 12 11 11 11 11 11 10 10 10 10 10 10 10 11 12 12 12 11 12 12
23 23 22 21 20 20 19 18 17 16 16 16 15 15 14 14 13 12 12 12 13 14 15 15 14 14 13 12 12 12 12 11 11 11 11 10 10 10 10 10 10 10 11 10 11 11 11 11 11
21 22 22 20 20 21 19 17 17 16 15 14 14 14 13 13 12 11 11 11 12 13 14 14 14 13 13 13 12 12 12 12 12 11 11 11 11 10 10 10 10 10 10 11 11 11 11 11 11
21 21 22 21 19 20 20 18 17 16 15 14 14 13 12 12 11 11 10 10 10 11 12 13 13 13 12 12 12 11 12 12 13 12 13 13 12 12 12 11 11 10 10 10 10 11 12 11 11
21 20 20 20 20 21 20 21 17 17 16 15 14 12 12 11 11 10 10 9 9 9 10 11 11 12 11 11 11 11 11 12 13 12 12 12 13 13 13 12 12 11 10 10 10 10 11 11 12
19 19 19 19 20 21 20 19 18 17 16 14 13 12 11 11 10 10 9 9 8 8 8 8 9 9 10 10 10 10 11 11 11 11 11 12 11 12 12 12 12 12 12 11 11 10 9 10 10
18 18 18 19 19 19 22 20 18 18 17 14 13 12 11 10 10 9 9 8 8 8 8 8 8 8 9 9 10 11 10 10 10 10 10 10 10 11 11 12 12 12 11 12 12 12 11 10 10
18 19 20 19 18 20 19 19 17 15 15 14 12 11 10 10 9 9 8 8 8 8 8 8 8 8 8 10 10 10 10 10 10 10 10 10 10 10 10 10 11 12 12 12 11 11 11 12 11
20 19 20 19 21 20 18 18 16 14 12 11 11 10 10 9 9 8 8 8 7 7 7 8 7 8 8 8 9 10 10 10 10 10 11 10 10 10 10 11 11 11 10 10 10 11 11 11 11
18 18 18 18 20 19 20 14 13 13 12 11 11 10 9 9 8 8 8 7 7 7 7 7 7 7 7 7 7 8 8 9 9 10 10 10 10 10 10 11 11 10 10 9 9 9 10 9 10
17 18 18 18 17 18 20 19 18 12 12 12 11 10 9 9 8 8 7 7 7 7 6 6 6 6 6 6 6 7 7 7 7 8 9 9 9 9 10 10 10 9 9 9 9 9 9 9 9
17 18 17 17 18 17 18 17 14 14 13 12 11 10 9 8 8 8 7 7 7 6 6 6 5 5 5 5 6 6 6 6 6 6 7 7 8 8 8 8 8 8 9 8 8 8 8 8 8
15 16 16 16 17 17 16 16 13 15 13 12 11 9 8 8 7 7 7 7 6 6 5 5 5 4 4 5 5 5 5 5 6 5 6 6 6 6 6 7 7 7 8 7 7 7 7 7 8
Height
1508 1509 1509 1509 1508 1497 1492 1498 1492 1496 1497 1504 1504 1502 1504 1508 1510 1518 1523 1524 1526 1529 1530 1530 1531 1533 1534 1534 1534 1534 1534 1534 1535 1535 1534 1533 1533 1533 1532 1534 1534 1534 1534 1534 1534 1535 1536 1537 1538
1509 1510 1510 1506 1503 1500 1493 1491 1495 1500 1504 1506 1506 1504 1504 1513 1517 1521 1524 1524 1528 1530 1530 1531 1533 1534 1535 1536 1536 1536 1536 1536 1536 1537 1538 1536 1536 1535 1535 1535 1536 1535 1535 1536 1536 1536 1537 1537 1537
1509 1510 1508 1500 1495 1493 1495 1495 1500 1503 1506 1505 1505 1508 1509 1518 1522 1523 1524 1526 1529 1531 1533 1533 1534 1535 1536 1537 1537 1537 1538 1538 1538 1539 1538 1538 1537 1537 1537 1537 1536 1536 1536 1537 1538 1536 1536 1537 1538
1511 1510 1508 1501 1497 1497 1495 1499 1503 1504 1506 1507 1506 1508 1517 1521 1523 1524 1524 1528 1531 1534 1532 1534 1534 1536 1538 1539 1539 1539 1539 1540 1540 1540 1540 1540 1540 1538 1538 1537 1538 1537 1537 1538 1538 1538 1538 1537 1538
1511 1507 1501 1500 1499 1499 1500 1505 1503 1502 1504 1506 1506 1511 1518 1522 1522 1523 1525 1529 1532 1535 1534 1536 1537 1538 1538 1539 1540 1540 1541 1541 1542 1542 1541 1541 1541 1540 1540 1539 1539 1539 1539 1539 1540 1540 1540 1540 1540
1509 1506 1501 1506 1502 1501 1502 1506 1504 1503 1505 1508 1507 1510 1521 1522 1524 1525 1528 1531 1534 1536 1537 1537 1538 1539 1541 1541 1541 1542 1543 1542 1543 1543 1542 1541 1541 1541 1540 1540 1540 1540 1540 1540 1541 1541 1541 1541 1542
1507 1502 1502 1502 1505 1504 1506 1508 1504 1506 1506 1511 1512 1511 1524 1525 1525 1527 1530 1532 1535 1537 1538 1537 1540 1541 1542 1542 1543 1543 1544 1544 1544 1543 1542 1542 1542 1542 1542 1542 1542 1542 1542 1542 1542 1543 1543 1543 1544
1510 1504 1506 1503 1505 1512 1510 1510 1512 1509 1513 1515 1515 1515 1521 1525 1526 1529 1531 1533 1536 1537 1538 1540 1540 1541 1544 1544 1544 1545 1545 1544 1543 1543 1543 1544 1545 1544 1545 1544 1544 1544 1544 1544 1544 1545 1545 1546 1547
1512 1504 1509 1510 1507 1512 1510 1510 1514 1515 1514 1517 1519 1521 1524 1524 1527 1530 1532 1534 1536 1537 1540 1543 1541 1542 1543 1545 1545 1545 1546 1545 1545 1544 1545 1546 1549 1548 1547 1547 1547 1547 1546 1546 1547 1547 1547 1548 1549
1508 1504 1512 1512 1512 1513 1513 1512 1513 1514 1515 1518 1520 1523 1524 1525 1528 1530 1532 1534 1535 1537 1540 1542 1543 1543 1543 1544 1546 1546 1546 1548 1549 1549 1548 1551 1551 1549 1549 1549 1548 1548 1548 1548 1549 1549 1549 1550 1552
1512 1511 1514 1516 1518 1517 1515 1515 1516 1514 1517 1526 1526 1526 1526 1528 1530 1531 1533 1535 1535 1537 1539 1541 1543 1544 1546 1545 1545 1547 1548 1548 1550 1550 1549 1550 1549 1549 1549 1550 1549 1549 1549 1549 1550 1550 1551 1552 1552
1513 1516 1517 1519 1521 1520 1518 1518 1522 1525 1529 1528 1527 1527 1527 1529 1530 1532 1533 1533 1535 1537 1538 1540 1541 1543 1544 1547 1548 1549 1548 1551 1550 1550 1549 1549 1549 1550 1550 1551 1550 1549 1550 1550 1550 1552 1552 1553 1553
1513 1517 1519 1519 1521 1521 1521 1522 1521 1528 1528 1527 1526 1526 1527 1528 1529 1531 1533 1534 1535 1536 1537 1538 1540 1542 1544 1546 1547 1549 1550 1550 1551 1550 1549 1549 1549 1550 1550 1551 1550 1550 1550 1550 1551 1551 1552 1553 1554
1518 1518 1518 1520 1520 1521 1520 1525 1524 1530 1529 1527 1527 1527 1527 1528 1529 1530 1531 1533 1535 1536 1536 1537 1538 1540 1543 1545 1546 1548 1549 1550 1550 1550 1550 1549 1549 1550 1550 1551 1550 1550 1550 1550 1551 1551 1551 1552 1553
1519 1518 1516 1518 1519 1522 1521 1526 1532 1532 1530 1529 1528 1528 1529 1528 1528 1529 1531 1531 1533 1535 1536 1537 1538 1539 1541 1544 1546 1546 1547 1548 1549 1549 1548 1549 1549 1550 1551 1551 1550 1550 1550 1550 1550 1550 1551 1551 1552
1517 1514 1515 1520 1519 1523 1524 1530 1534 1533 1531 1530 1530 1529 1529 1529 1529 1528 1527 1527 1531 1533 1534 1536 1537 1538 1540 1542 1544 1545 1546 1546 1547 1548 1548 1548 1548 1548 1549 1550 1550 1549 1549 1549 1550 1550 1550 1550 1551
1511 1506 1511 1520 1520 1520 1519 1527 1534 1534 1532 1531 1531 1531 1531 1530 1529 1528 1526 1525 1526 1530 1532 1534 1535 1537 1540 1541 1543 1544 1545 1545 1546 1547 1547 1547 1547 1547 1547 1549 1549 1549 1548 1548 1549 1549 1549 1549 1551
1505 1508 1511 1513 1521 1519 1523 1531 1534 1535 1534 1534 1533 1533 1532 1531 1530 1527 1525 1523 1522 1524 1529 1532 1534 1536 1539 1540 1542 1543 1544 1545 1546 1546 1546 1547 1546 1546 1546 1547 1548 1548 1547 1547 1548 1548 1548 1548 1549
1509 1511 1512 1516 1523 1522 1526 1531 1535 1537 1537 1536 1536 1535 1534 1532 1531 1528 1524 1522 1520 1522 1526 1530 1533 1535 1538 1539 1541 1542 1543 1544 1544 1544 1545 1545 1546 1545 1545 1546 1547 1546 1546 1546 1546 1547 1547 1547 1548
1515 1513 1514 1523 1524 1522 1528 1534 1536 1538 1539 1539 1539 1538 1537 1535 1532 1529 1526 1523 1522 1523 1526 1529 1531 1533 1536 1538 1540 1541 1543 1543 1544 1543 1543 1543 1544 1544 1544 1544 1544 1545 1544 1544 1544 1545 1546 1546 1547
1515 1516 1514 1518 1523 1521 1524 1530 1532 1538 1540 1541 1542 1541 1540 1537 1535 1533 1530 1527 1525 1525 1526 1529 1531 1533 1534 1536 1537 1538 1539 1540 1541 1541 1541 1542 1542 1543 1542 1542 1542 1543 1543 1542 1542 1542 1543 1544 1546
1515 1519 1520 1522 1523 1519 1519 1518 1529 1533 1539 1542 1544 1544 1543 1542 1539 1536 1534 1531 1528 1527 1527 1528 1530 1532 1534 1535 1536 1537 1538 1540 1541 1541 1541 1540 1540 1540 1540 1540 1540 1540 1540 1540 1540 1540 1540 1540 1541
1524 1523 1522 1522 1521 1517 1519 1526 1523 1529 1536 1543 1547 1548 1547 1546 1543 1540 1538 1535 1534 1531 1529 1529 1530 1530 1531 1533 1533 1535 1537 1538 1539 1539 1538 1538 1538 1538 1538 1538 1538 1538 1538 1538 1537 1538 1538 1538 1538
1526 1525 1524 1524 1521 1527 1503 1516 1525 1524 1530 1544 1548 1550 1550 1549 1547 1545 1543 1540 1537 1536 1534 1533 1532 1531 1531 1531 1532 1533 1534 1535 1535 1536 1536 1536 1537 1536 1535 1535 1535 1535 1535 1535 1535 1535 1534 1535 1534
1526 1523 1520 1523 1526 1513 1514 1520 1527 1535 1539 1544 1549 1551 1552 1552 1551 1549 1546 1544 1542 1540 1538 1538 1537 1536 1534 1533 1532 1533 1533 1533 1533 1533 1534 1534 1534 1535 1534 1533 1532 1532 1531 1532 1532 1531 1531 1531 1530
1519 1522 1521 1527 1511 1509 1519 1519 1530 1540 1546 1549 1551 1553 1554 1554 1553 1552 1550 1549 1547 1545 1543 1542 1540 1539 1538 1537 1536 1535 1534 1533 1533 1533 1532 1531 1531 1530 1529 1529 1528 1528 1528 1528 1528 1527 1527 1527 1526
1522 1524 1522 1522 1509 1519 1505 1532 1538 1543 1548 1550 1552 1554 1555 1555 1555 1555 1554 1552 1551 1549 1547 1546 1544 1543 1541 1540 1539 1538 1537 1535 1534 1533 1532 1531 1530 1528 1527 1526 1524 1524 1523 1523 1523 1523 1523 1523 1522
1525 1524 1524 1520 1527 1518 1504 1505 1510 1539 1543 1548 1552 1555 1556 1557 1557 1557 1557 1556 1554 1553 1551 1550 1548 1545 1544 1543 1542 1540 1539 1537 1536 1534 1533 1531 1530 1528 1526 1524 1523 1521 1520 1519 1519 1518 1518 1518 1518
1525 1522 1523 1524 1519 1521 1516 1516 1530 1532 1538 1546 1550 1554 1558 1559 1558 1558 1558 1558 1557 1555 1554 1552 1550 1548 1545 1544 1543 1541 1539 1538 1537 1535 1532 1531 1529 1527 1525 1523 1522 1520 1518 1517 1516 1516 1515 1514 1514
1533 1530 1529 1529 1521 1519 1523 1524 1538 1534 1540 1546 1552 1557 1558 1559 1560 1560 1560 1559 1557 1556 1555 1553 1551 1549 1547 1545 1543 1541 1539 1537 1535 1534 1532 1530 1528 1527 1525 1522 1521 1519 1517 1516 1514 1513 1512 1511 1510
Wind_Speed
4 5 3 3 5 5 3 5 2 5 6 7 7 9 10 15 9 4 10 6 14 16 12 14 11 6 8 5 5 7 9 12 12 8 10 7 5 6 1 5 6 9 8 5 3 2 2 6 5
3 4 2 4 6 7 6 5 8 8 8 5 5 4 8 11 11 9 9 12 17 15 15 13 7 8 10 7 9 8 6 9 9 8 7 9 9 8 11 9 7 7 7 5 1 5 9 10 10
2 3 7 4 7 5 7 4 9 9 6 5 3 7 6 7 8 7 8 17 17 12 14 12 10 10 8 7 9 5 5 9 8 8 7 7 10 9 11 9 7 5 5 3 8 5 2 4 8
2 3 5 7 6 4 9 7 7 8 6 4 2 8 8 6 3 4 14 17 16 14 10 10 9 12 10 8 6 2 9 6 7 7 7 8 8 7 10 10 6 6 9 6 4 4 7 6 7
1 4 4 4 5 4 6 2 5 5 7 8 5 8 7 5 8 12 17 18 16 13 7 9 12 11 9 11 6 7 8 7 7 5 6 5 6 8 9 10 11 10 10 8 8 8 9 9 8
4 5 5 6 6 4 5 4 4 6 6 6 7 12 8 6 9 13 15 17 15 14 10 10 9 10 6 7 5 8 6 7 6 3 6 7 6 6 8 9 8 8 8 9 8 8 9 10 11
2 5 3 4 6 7 5 2 2 6 5 9 5 10 7 7 9 14 14 14 14 13 12 9 10 9 7 6 6 7 6 6 4 3 4 4 5 7 7 7 7 7 7 7 8 8 9 9 10
1 2 5 3 8 5 3 3 2 7 9 4 7 8 10 9 12 13 13 13 13 13 11 9 10 10 7 8 6 6 5 4 2 1 3 6 7 7 9 9 5 7 7 7 7 8 7 8 8
3 3 7 5 5 5 4 4 3 2 7 9 8 9 7 11 14 13 13 13 14 11 12 12 11 10 11 10 7 6 5 6 3 3 6 9 3 3 4 3 3 5 5 6 6 7 7 7 7
4 4 5 5 4 5 6 9 5 4 6 9 11 9 8 10 12 12 13 13 14 13 13 12 9 10 7 9 8 8 6 4 2 2 2 3 2 3 3 2 2 2 3 5 5 5 5 5 2
3 7 4 5 6 6 3 9 7 6 10 10 10 8 3 8 9 9 9 10 13 14 13 13 12 11 13 7 10 5 5 5 6 5 4 3 4 1 1 2 3 2 2 3 2 3 3 1 2
2 4 2 2 3 5 6 4 14 15 9 10 7 4 2 6 7 8 8 10 12 14 15 14 13 12 11 9 8 7 8 6 6 5 6 4 3 3 3 1 3 1 1 1 1 1 3 1 1
1 3 1 2 4 2 1 5 6 15 13 11 8 3 2 5 6 6 7 8 11 13 15 15 14 13 12 11 10 8 8 8 6 7 6 5 6 5 4 3 3 3 3 3 3 3 4 3 3
2 1 2 3 3 2 3 6 1 15 12 12 9 7 4 2 4 6 7 8 10 11 14 15 15 14 12 12 10 10 9 8 8 7 6 6 5 5 5 5 5 4 5 5 5 5 5 5 5
4 7 5 6 4 5 10 10 9 11 9 11 12 10 7 6 2 3 6 9 10 11 12 14 15 14 13 12 11 10 9 9 9 8 8 8 7 6 7 6 6 6 7 7 6 5 6 6 7
6 7 7 6 1 3 4 7 10 11 10 12 12 13 11 9 7 4 4 6 10 12 13 14 15 14 13 12 10 9 8 8 8 8 7 7 8 8 8 7 6 8 9 8 7 6 6 6 7
8 3 3 6 3 3 6 9 8 10 11 12 14 14 13 12 12 10 8 6 10 13 14 15 15 14 14 12 10 9 8 9 8 8 8 8 8 8 8 7 7 8 9 8 8 8 7 6 6
5 5 4 2 4 6 8 8 7 10 11 12 14 15 15 16 17 15 12 9 7 14 15 15 15 14 14 12 11 9 9 9 9 8 8 8 8 8 8 9 8 8 9 9 10 9 7 9 9
1 2 3 4 3 3 6 7 6 8 12 13 15 17 17 18 17 17 15 12 5 8 14 15 14 13 13 13 11 10 9 8 9 9 9 9 9 8 9 8 8 9 9 8 10 10 9 9 9
3 4 3 4 1 5 6 6 6 8 11 13 14 17 19 19 20 20 18 16 10 3 9 11 12 13 13 11 10 9 7 8 7 8 8 9 9 10 10 10 9 9 10 10 11 11 10 9 9
3 5 0 5 5 5 7 8 8 7 10 11 14 15 18 20 21 22 21 19 16 10 5 7 9 10 11 10 9 10 9 11 8 9 8 6 7 8 10 11 11 10 11 12 11 12 12 11 8
6 2 1 4 5 4 12 1 9 9 8 11 13 15 17 19 21 22 23 23 20 16 12 7 5 6 7 9 8 8 6 5 4 5 6 7 8 9 9 10 11 12 12 13 12 13 14 14 14
6 1 2 4 8 9 11 6 10 9 7 8 11 14 16 18 19 22 23 23 22 21 18 14 11 6 4 4 7 6 6 6 6 7 9 10 10 10 10 11 11 12 14 14 14 13 14 15 16
3 3 5 5 7 6 11 9 9 6 9 7 10 12 14 16 18 19 20 21 23 22 23 22 18 13 8 4 3 4 5 6 5 5 6 7 8 10 12 14 14 14 14 14 15 16 18 18 18
5 6 4 6 5 1 3 5 8 8 8 9 9 10 12 14 16 18 20 21 21 22 22 21 21 21 19 15 11 6 3 1 1 3 4 7 7 7 9 12 15 17 17 17 16 17 18 19 20
3 5 6 6 6 3 4 4 6 8 9 10 10 10 11 13 14 16 17 18 19 20 20 20 20 19 18 18 17 16 13 11 9 8 6 4 4 6 11 14 15 16 17 18 19 20 21 21 22
5 4 4 6 10 6 4 5 5 9 9 9 9 9 9 10 12 13 15 16 17 18 19 19 18 19 18 17 15 14 14 13 12 10 9 8 8 8 8 9 10 13 15 17 18 21 21 20 21
5 4 4 5 4 8 5 4 3 14 12 10 9 8 8 8 10 11 13 14 15 15 16 17 17 17 16 16 15 14 13 13 12 11 11 10 10 10 10 10 9 9 10 12 14 18 20 20 21
2 4 3 3 4 5 9 4 8 10 12 11 10 7 6 6 8 9 10 11 13 13 15 15 16 16 15 15 14 13 13 13 12 12 12 12 12 12 12 12 11 10 10 9 9 12 14 16 18
3 4 5 4 1 3 4 3 4 3 11 11 10 7 5 5 6 7 8 9 11 13 14 15 15 16 16 15 13 13 13 12 12 13 13 13 13 13 14 13 13 12 11 10 9 9 10 12 15
Wind_Direction
354 336 289 266 243 240 173 107 115 97 84 49 38 23 43 37 11 37 144 125 145 141 159 150 154 150 154 119 99 97 85 88 101 104 76 72 88 68 219 152 129 89 102 123 133 123 222 197 159
314 312 282 264 256 211 128 131 102 69 84 50 53 351 40 72 46 100 134 136 143 145 147 148 163 153 155 114 118 112 88 104 101 105 92 84 79 72 99 134 153 92 90 109 269 252 259 242 205
342 281 254 239 249 256 115 87 111 105 80 37 90 45 25 54 58 110 143 142 145 140 152 169 184 160 164 131 141 112 126 99 87 112 100 81 87 80 108 124 158 152 208 221 250 262 68 149 171
289 237 232 243 195 46 84 100 116 129 94 51 34 73 86 53 90 145 141 146 147 139 170 169 172 150 152 151 146 182 107 114 104 88 102 98 93 88 89 101 152 209 224 221 189 96 74 83 106
313 247 234 222 97 124 90 75 150 103 94 72 14 87 76 60 107 126 141 148 150 144 162 146 146 142 148 166 143 122 122 114 115 131 100 94 100 96 89 94 93 98 100 105 99 91 82 101 90
232 280 225 173 132 126 103 90 132 75 88 86 71 92 72 106 117 138 144 151 154 153 148 162 142 158 155 145 152 148 136 119 125 128 109 99 111 102 104 103 97 120 114 110 100 108 95 97 102
286 261 31 113 138 125 48 44 158 73 90 57 14 64 99 117 134 144 144 151 158 158 162 179 161 168 167 165 157 149 151 150 181 145 147 145 117 108 106 104 110 114 118 118 119 114 107 105 109
290 257 154 144 170 84 50 82 70 6 73 57 4 30 88 145 141 146 149 155 158 161 164 150 173 169 167 167 173 171 171 172 172 220 131 90 76 82 79 64 88 101 104 110 111 109 106 101 99
285 231 111 110 104 102 84 121 83 71 99 70 60 63 104 143 146 151 158 164 167 168 160 167 179 163 172 174 189 188 199 197 181 104 88 72 71 75 42 74 68 90 99 98 99 102 104 103 97
290 100 75 50 67 81 78 65 90 190 141 87 90 65 113 145 156 163 171 178 179 178 177 174 184 177 180 183 188 189 203 170 113 133 49 113 175 215 170 91 73 81 83 90 93 98 106 99 63
342 95 130 99 57 22 73 73 36 355 71 14 345 15 128 164 177 180 187 193 191 188 185 183 179 187 176 198 195 198 170 194 187 200 204 215 197 269 63 328 3 19 54 40 25 53 42 141 162
172 90 28 105 35 4 36 351 80 44 15 338 329 328 193 195 205 208 198 193 194 196 194 190 189 185 187 188 180 217 180 215 198 218 222 216 223 223 232 232 259 256 269 226 252 258 262 299 269
101 95 345 358 314 310 306 50 84 32 10 9 11 9 304 237 224 222 216 205 197 198 200 197 195 194 191 191 199 203 206 215 215 226 237 216 225 217 245 266 266 253 254 257 254 262 260 278 253
85 106 90 86 121 90 142 58 92 8 7 23 28 24 4 323 233 227 215 216 208 205 204 201 200 198 197 199 205 204 208 223 218 224 229 236 231 230 245 253 259 261 265 258 255 249 254 260 265
165 147 137 82 110 116 139 71 39 6 16 27 31 32 33 31 358 242 238 232 224 216 211 204 203 206 200 203 209 208 212 213 222 226 233 228 230 230 237 237 259 251 263 268 268 264 262 264 265
211 218 195 72 149 128 235 88 36 17 26 30 31 31 31 29 16 348 298 240 227 222 214 208 203 202 206 207 212 214 217 220 223 231 232 234 232 238 229 240 251 259 263 266 265 259 261 266 265
200 226 177 145 44 196 239 115 45 30 37 36 30 30 28 24 14 354 332 288 241 220 214 210 207 203 205 206 209 218 218 227 228 228 235 239 236 238 240 246 253 254 262 266 264 267 267 255 270
164 192 178 234 87 118 104 109 75 47 46 41 35 30 26 23 15 4 353 328 278 214 210 208 207 206 205 207 208 217 224 229 228 234 234 236 243 250 248 251 250 249 263 267 266 265 260 263 259
14 269 244 96 127 111 117 109 79 60 53 45 39 34 28 24 17 16 11 3 353 199 202 204 204 204 203 204 209 216 226 233 236 242 239 239 241 253 255 252 253 261 260 263 264 261 265 272 287
297 273 165 87 156 245 158 117 88 71 63 53 45 39 32 27 25 24 25 25 34 141 196 196 200 202 203 205 209 213 228 236 243 246 249 247 253 252 256 262 257 251 263 268 262 264 261 270 253
223 285 97 306 159 241 184 189 167 104 78 64 53 47 43 38 33 31 31 36 42 55 129 182 191 198 203 203 208 211 218 224 241 254 260 258 263 269 273 270 263 258 258 263 266 264 263 253 258
268 61 269 190 217 273 203 91 170 141 97 68 57 49 44 40 41 42 40 40 45 52 62 94 142 175 192 209 212 225 233 250 253 222 252 260 269 274 277 278 272 261 256 266 264 264 262 259 254
50 35 255 254 260 286 209 252 118 158 120 78 60 52 49 45 44 45 46 47 47 51 59 66 77 88 173 178 201 213 238 245 249 250 252 250 253 255 255 263 266 266 265 261 262 257 260 259 256
125 221 232 256 256 246 231 212 154 179 120 111 80 61 53 49 48 48 47 50 52 53 53 58 62 70 92 115 186 220 232 243 247 260 264 273 268 264 262 258 258 256 261 267 269 267 259 260 261
225 248 238 206 198 312 86 219 67 102 102 106 94 74 62 53 47 47 46 46 46 47 52 54 54 56 59 68 72 76 69 29 320 291 278 270 280 281 280 274 264 262 259 257 258 262 266 267 264
230 305 298 303 325 42 154 245 116 120 124 118 104 90 75 61 52 48 45 44 43 44 47 46 49 50 51 53 56 57 59 58 49 38 25 356 318 288 275 272 268 264 260 262 262 258 261 261 266
129 232 9 292 258 270 147 111 144 157 150 141 118 102 82 65 55 50 45 44 41 39 39 41 42 40 40 41 43 41 40 38 37 33 26 19 4 355 341 325 295 278 268 262 260 262 261 263 263
281 5 245 197 270 270 185 213 114 180 175 159 151 120 95 74 61 51 45 43 42 38 36 34 34 34 32 31 28 26 27 25 19 14 11 4 360 355 354 346 339 328 304 283 273 269 268 264 259
210 221 226 302 273 292 297 84 357 174 175 174 150 131 106 78 63 54 46 40 37 35 32 27 25 21 23 21 18 14 12 11 11 5 3 358 352 347 344 343 343 340 331 324 302 285 277 269 266
287 312 286 267 277 250 292 307 356 107 162 172 153 143 111 86 65 52 43 36 32 27 21 17 11 9 7 6 5 3 359 358 357 353 351 348 346 347 341 338 338 331 330 335 330 323 304 287 279